This is the latest recevied weather packets stored in our database for station/object KN6DHD. If no packets are shown the sender has not sent any weather packets the latest 10 day(s).
| Time | Temp. | Humidity | Pressure | Rain* | Wind** | Luminosity | Snow |
|---|---|---|---|---|---|---|---|
| 1777752035 | 20° C | 68% | 1013.1 hPa | 0 mm | - | 474 W/m² | - |
| 1777751732 | 20° C | 70% | 1013.2 hPa | 0 mm | - | 575 W/m² | - |
| 1777751428 | 20° C | 71% | 1013.3 hPa | 0 mm | - | 614 W/m² | - |
| 1777751125 | 18.89° C | 73% | 1013.4 hPa | 0 mm | - | 660 W/m² | - |
| 1777750821 | 18.89° C | 74% | 1013.2 hPa | 0 mm | - | 557 W/m² | - |
| 1777750519 | 18.33° C | 74% | 1013.5 hPa | 0 mm | - | 209 W/m² | - |
| 1777750215 | 18.89° C | 73% | 1013.5 hPa | 0 mm | - | 251 W/m² | - |
| 1777749910 | 18.89° C | 72% | 1013.5 hPa | 0 mm | - | 482 W/m² | - |
| 1777749609 | 18.89° C | 73% | 1013.6 hPa | 0 mm | - | 537 W/m² | - |
| 1777749305 | 18.33° C | 73% | 1013.6 hPa | 0 mm | - | 669 W/m² | - |
| 1777749003 | 17.78° C | 75% | 1013.6 hPa | 0 mm | - | 533 W/m² | - |
| 1777748700 | 17.22° C | 78% | 1013.9 hPa | 0 mm | - | 336 W/m² | - |
| 1777748396 | 16.67° C | 78% | 1013.9 hPa | 0 mm | - | 267 W/m² | - |
| 1777748092 | 16.67° C | 78% | 1013.8 hPa | 0 mm | - | 223 W/m² | - |
| 1777747789 | 16.11° C | 79% | 1013.8 hPa | 0 mm | - | 213 W/m² | - |
| 1777747484 | 16.67° C | 80% | 1013.7 hPa | 0 mm | - | 221 W/m² | - |
| 1777747181 | 16.11° C | 81% | 1013.8 hPa | 0 mm | - | 237 W/m² | - |
| 1777746877 | 16.11° C | 81% | 1013.9 hPa | 0 mm | - | 241 W/m² | - |
| 1777746572 | 16.11° C | 80% | 1013.8 hPa | 0 mm | - | 192 W/m² | - |
| 1777746268 | 16.11° C | 81% | 1014 hPa | 0 mm | - | 170 W/m² | - |
| 1777745964 | 16.11° C | 80% | 1013.8 hPa | 0 mm | - | 146 W/m² | - |
| 1777745663 | 16.11° C | 81% | 1013.9 hPa | 0 mm | - | 122 W/m² | - |
| 1777745361 | 16.11° C | 80% | 1013.5 hPa | 0 mm | - | 113 W/m² | - |
| 1777745058 | 15.56° C | 80% | 1013.9 hPa | 0 mm | - | 113 W/m² | - |
| 1777744754 | 16.11° C | 81% | 1013.8 hPa | 0 mm | - | 118 W/m² | - |
* Rain latest hour (hover to see other rain measurements)
** Current wind speed in m/s (hover to see current wind gust speed)